| time (UTC) | temp C | wind direction | speed KPH | gust KPH | rain 1hr cm | rain 24hr cm | rain mn cm | humidity % | barometer mb |
| 20260906112912 | 22 | 51 | 4.8 | 4.8 | 0.00 | 0.00 | 0.00 | 95 | 1014.5 |
| 20260906112407 | 22 | 51 | 3.2 | 3.2 | 0.00 | 0.00 | 0.00 | 95 | 1014.4 |
| 20260906111902 | 22 | 214 | 3.2 | 3.2 | 0.00 | 0.00 | 0.00 | 95 | 1014.7 |
| 20260906111402 | 22 | 48 | 4.8 | 4.8 | 0.00 | 0.00 | 0.00 | 95 | 1014.5 |
| 20260906110856 | 22 | 332 | 3.2 | 3.2 | 0.00 | 0.00 | 0.00 | 94 | 1014.5 |
| 20260906110352 | 22 | 198 | 3.2 | 3.2 | 0.00 | 0.00 | 0.00 | 94 | 1014.5 |
| 20260906105851 | 23 | 316 | 3.2 | 4.8 | 0.00 | 0.00 | 0.00 | 94 | 1014.5 |
| 20260906105347 | 23 | 50 | 4.8 | 4.8 | 0.00 | 0.00 | 0.00 | 94 | 1014.5 |
| 20260906104843 | 23 | 298 | 4.8 | 4.8 | 0.00 | 0.00 | 0.00 | 94 | 1014.2 |
| 20260906104341 | 23 | 174 | 3.2 | 4.8 | 0.00 | 0.00 | 0.00 | 94 | 1014.4 |
| 20260906103840 | 23 | 303 | 1.6 | 3.2 | 0.00 | 0.00 | 0.00 | 94 | 1014.1 |
| 20260906103338 | 23 | 20 | 4.8 | 4.8 | 0.00 | 0.00 | 0.00 | 94 | 1014.3 |
| 20260906102834 | 23 | 61 | 1.6 | 1.6 | 0.00 | 0.00 | 0.00 | 94 | 1014.2 |
| 20260906102333 | 23 | 216 | 3.2 | 3.2 | 0.00 | 0.00 | 0.00 | 94 | 1013.9 |
| 20260906101829 | 23 | 235 | 1.6 | 1.6 | 0.00 | 0.00 | 0.00 | 93 | 1013.9 |
| 20260906101324 | 23 | 159 | 1.6 | 1.6 | 0.00 | 0.00 | 0.00 | 93 | 1013.8 |
| 20260906100819 | 23 | 79 | 1.6 | 1.6 | 0.00 | 0.00 | 0.00 | 93 | 1013.8 |
| 20260906100318 | 23 | 40 | 3.2 | 4.8 | 0.00 | 0.00 | 0.00 | 93 | 1013.7 |
| 20260906095813 | 23 | 317 | 3.2 | 4.8 | 0.00 | 0.00 | 0.00 | 93 | 1013.9 |
| 20260906095309 | 23 | 6 | 3.2 | 3.2 | 0.00 | 0.00 | 0.00 | 93 | 1013.8 |
| 20260906094808 | 23 | 212 | 1.6 | 1.6 | 0.00 | 0.00 | 0.00 | 92 | 1014.0 |
| 20260906094303 | 23 | 273 | 3.2 | 3.2 | 0.00 | 0.00 | 0.00 | 92 | 1013.8 |
| 20260906093759 | 24 | 336 | 3.2 | 3.2 | 0.00 | 0.00 | 0.00 | 92 | 1014.0 |
| 20260906093255 | 24 | 45 | 4.8 | 4.8 | 0.00 | 0.00 | 0.00 | 92 | 1013.7 |
| 20260906092749 | 24 | 106 | 1.6 | 3.2 | 0.00 | 0.00 | 0.00 | 91 | 1013.6 |
| 20260906092244 | 24 | 152 | 1.6 | 1.6 | 0.00 | 0.00 | 0.00 | 91 | 1013.6 |
| 20260906091740 | 24 | 36 | 3.2 | 3.2 | 0.00 | 0.00 | 0.00 | 91 | 1013.4 |
| 20260906091236 | 24 | 293 | 3.2 | 3.2 | 0.00 | 0.00 | 0.00 | 91 | 1013.6 |
| 20260906090732 | 24 | 91 | 1.6 | 3.2 | 0.00 | 0.00 | 0.00 | 91 | 1013.6 |
| 20260906090231 | 24 | 100 | 3.2 | 3.2 | 0.00 | 0.00 | 0.00 | 91 | 1013.8 |
| 20260906085731 | 24 | 139 | 1.6 | 1.6 | 0.00 | 0.00 | 0.00 | 91 | 1013.6 |
| 20260906085230 | 24 | 162 | 1.6 | 1.6 | 0.00 | 0.00 | 0.00 | 90 | 1013.7 |
| 20260906084724 | 25 | 163 | 0.0 | 0.0 | 0.00 | 0.00 | 0.00 | 90 | 1013.6 |
| 20260906084218 | 25 | 237 | 1.6 | 3.2 | 0.00 | 0.00 | 0.00 | 90 | 1013.7 |
| 20260906083714 | 25 | 190 | 1.6 | 3.2 | 0.00 | 0.00 | 0.00 | 90 | 1013.5 |
| 20260906083209 | 25 | 180 | 1.6 | 3.2 | 0.00 | 0.00 | 0.00 | 90 | 1013.5 |
| 20260906082704 | 25 | 123 | 1.6 | 1.6 | 0.00 | 0.00 | 0.00 | 89 | 1013.4 |
| 20260906082154 | 25 | 173 | 1.6 | 1.6 | 0.00 | 0.00 | 0.00 | 89 | 1013.5 |
| 20260906081649 | 25 | 175 | 1.6 | 1.6 | 0.00 | 0.00 | 0.00 | 89 | 1013.5 |
| 20260906081144 | 25 | 26 | 1.6 | 3.2 | 0.00 | 0.00 | 0.00 | 88 | 1013.8 |
| 20260906080641 | 25 | 98 | 1.6 | 3.2 | 0.00 | 0.00 | 0.00 | 88 | 1013.6 |
| 20260906080137 | 25 | 109 | 1.6 | 3.2 | 0.00 | 0.00 | 0.00 | 88 | 1013.5 |
| 20260906075636 | 25 | 182 | 0.0 | 1.6 | 0.00 | 0.00 | 0.00 | 88 | 1013.3 |
| 20260906075131 | 25 | 172 | 0.0 | 0.0 | 0.00 | 0.00 | 0.00 | 87 | 1013.5 |
| 20260906074626 | 25 | 178 | 0.0 | 0.0 | 0.00 | 0.00 | 0.00 | 87 | 1013.3 |
| 20260906074125 | 25 | 197 | 1.6 | 1.6 | 0.00 | 0.00 | 0.00 | 87 | 1013.3 |
| 20260906073620 | 25 | 158 | 0.0 | 0.0 | 0.00 | 0.00 | 0.00 | 86 | 1013.6 |
| 20260906073116 | 25 | 168 | 0.0 | 1.6 | 0.00 | 0.00 | 0.00 | 86 | 1013.3 |
| 20260906072611 | 25 | 184 | 1.6 | 1.6 | 0.00 | 0.00 | 0.00 | 86 | 1013.4 |
| 20260906072107 | 25 | 140 | 1.6 | 1.6 | 0.00 | 0.00 | 0.00 | 86 | 1013.2 |
| 20260906071603 | 25 | 192 | 0.0 | 1.6 | 0.00 | 0.00 | 0.00 | 85 | 1013.4 |
| 20260906071057 | 25 | 127 | 1.6 | 1.6 | 0.00 | 0.00 | 0.00 | 86 | 1013.3 |
| 20260906070554 | 25 | 222 | 3.2 | 3.2 | 0.00 | 0.00 | 0.00 | 86 | 1013.4 |
| 20260906070049 | 25 | 31 | 1.6 | 3.2 | 0.00 | 0.00 | 0.00 | 86 | 1013.5 |
| 20260906065548 | 25 | 167 | 0.0 | 1.6 | 0.00 | 0.00 | 0.00 | 86 | 1013.2 |
| 20260906065044 | 25 | 172 | 0.0 | 0.0 | 0.00 | 0.00 | 0.00 | 85 | 1013.4 |
| 20260906064540 | 25 | 169 | 0.0 | 1.6 | 0.00 | 0.00 | 0.00 | 85 | 1013.4 |
| 20260906064035 | 25 | 239 | 3.2 | 3.2 | 0.00 | 0.00 | 0.00 | 85 | 1013.5 |
| 20260906063530 | 25 | 195 | 1.6 | 1.6 | 0.00 | 0.00 | 0.00 | 85 | 1013.5 |
| 20260906063026 | 25 | 173 | 0.0 | 0.0 | 0.00 | 0.00 | 0.00 | 84 | 1013.7 |
| 20260906062521 | 26 | 148 | 0.0 | 0.0 | 0.00 | 0.00 | 0.00 | 83 | 1013.5 |
| 20260906062015 | 26 | 210 | 1.6 | 1.6 | 0.00 | 0.00 | 0.00 | 83 | 1013.5 |
| 20260906061512 | 26 | 216 | 3.2 | 3.2 | 0.00 | 0.00 | 0.00 | 82 | 1013.7 |
| 20260906061011 | 26 | 57 | 3.2 | 3.2 | 0.00 | 0.00 | 0.00 | 82 | 1013.6 |
| 20260906060508 | 26 | 170 | 0.0 | 0.0 | 0.00 | 0.00 | 0.00 | 82 | 1013.9 |
| 20260906060004 | 26 | 160 | 1.6 | 1.6 | 0.00 | 0.00 | 0.00 | 81 | 1013.9 |
| 20260906055500 | 26 | 355 | 3.2 | 3.2 | 0.00 | 0.00 | 0.00 | 81 | 1013.9 |
| 20260906054955 | 26 | 155 | 0.0 | 1.6 | 0.00 | 0.00 | 0.00 | 82 | 1014.0 |
| 20260906054455 | 26 | 175 | 0.0 | 0.0 | 0.00 | 0.00 | 0.00 | 82 | 1014.1 |
| 20260906053950 | 26 | 159 | 1.6 | 3.2 | 0.00 | 0.00 | 0.00 | 81 | 1014.1 |
| 20260906053447 | 26 | 57 | 3.2 | 3.2 | 0.00 | 0.00 | 0.00 | 82 | 1014.1 |
| 20260906052942 | 26 | 163 | 0.0 | 1.6 | 0.00 | 0.00 | 0.00 | 85 | 1014.0 |
| 20260906052438 | 26 | 122 | 0.0 | 1.6 | 0.00 | 0.00 | 0.00 | 84 | 1013.7 |
| 20260906051935 | 26 | 195 | 0.0 | 0.0 | 0.00 | 0.00 | 0.00 | 84 | 1014.0 |
| 20260906051430 | 26 | 247 | 1.6 | 3.2 | 0.00 | 0.00 | 0.00 | 85 | 1013.8 |
| 20260906050926 | 26 | 187 | 0.0 | 0.0 | 0.00 | 0.00 | 0.00 | 85 | 1014.0 |
| 20260906050425 | 26 | 187 | 0.0 | 0.0 | 0.00 | 0.00 | 0.00 | 85 | 1013.8 |
| 20260906045925 | 26 | 187 | 0.0 | 0.0 | 0.00 | 0.00 | 0.00 | 85 | 1013.8 |
| 20260906045423 | 25 | 140 | 1.6 | 1.6 | 0.00 | 0.00 | 0.00 | 86 | 1013.7 |
| 20260906044919 | 25 | 163 | 0.0 | 0.0 | 0.00 | 0.00 | 0.00 | 86 | 1013.6 |
| 20260906044414 | 26 | 162 | 0.0 | 1.6 | 0.00 | 0.00 | 0.00 | 85 | 1013.7 |
| 20260906043910 | 26 | 188 | 0.0 | 0.0 | 0.00 | 0.00 | 0.00 | 85 | 1013.7 |
| 20260906043406 | 26 | 172 | 0.0 | 0.0 | 0.00 | 0.00 | 0.00 | 85 | 1013.4 |
| 20260906042901 | 26 | 169 | 0.0 | 0.0 | 0.00 | 0.00 | 0.00 | 85 | 1013.5 |
| 20260906042400 | 26 | 183 | 0.0 | 0.0 | 0.00 | 0.00 | 0.00 | 84 | 1013.4 |
| 20260906041855 | 26 | 165 | 0.0 | 0.0 | 0.00 | 0.00 | 0.00 | 84 | 1013.2 |
| 20260906041351 | 26 | 167 | 0.0 | 0.0 | 0.00 | 0.00 | 0.00 | 84 | 1013.0 |
| 20260906040845 | 26 | 177 | 0.0 | 0.0 | 0.00 | 0.00 | 0.00 | 83 | 1013.1 |
| 20260906040341 | 26 | 184 | 0.0 | 0.0 | 0.00 | 0.00 | 0.00 | 83 | 1013.3 |
| 20260906035836 | 26 | 183 | 0.0 | 0.0 | 0.00 | 0.00 | 0.00 | 82 | 1013.3 |
| 20260906035331 | 26 | 183 | 0.0 | 0.0 | 0.00 | 0.00 | 0.00 | 82 | 1013.4 |
| 20260906034826 | 26 | 183 | 0.0 | 0.0 | 0.00 | 0.00 | 0.00 | 81 | 1013.2 |
| 20260906034321 | 27 | 183 | 0.0 | 0.0 | 0.00 | 0.00 | 0.00 | 80 | 1013.2 |
| 20260906033817 | 26 | 167 | 0.0 | 0.0 | 0.00 | 0.00 | 0.00 | 80 | 1013.1 |
| 20260906033316 | 27 | 164 | 0.0 | 1.6 | 0.00 | 0.00 | 0.00 | 79 | 1013.0 |
| 20260906032813 | 27 | 175 | 0.0 | 0.0 | 0.00 | 0.00 | 0.00 | 79 | 1013.3 |
| 20260906032308 | 27 | 166 | 0.0 | 0.0 | 0.00 | 0.00 | 0.00 | 80 | 1013.1 |
| 20260906031803 | 26 | 160 | 0.0 | 0.0 | 0.00 | 0.00 | 0.00 | 81 | 1013.1 |
| 20260906031259 | 27 | 157 | 1.6 | 1.6 | 0.00 | 0.00 | 0.00 | 79 | 1013.2 |
| 20260906030758 | 27 | 157 | 0.0 | 1.6 | 0.00 | 0.00 | 0.00 | 79 | 1013.0 |
| 20260906030254 | 27 | 170 | 0.0 | 0.0 | 0.00 | 0.00 | 0.00 | 79 | 1013.1 |
| 20260906025753 | 26 | 204 | 1.6 | 1.6 | 0.00 | 0.00 | 0.00 | 79 | 1013.0 |
| 20260906025248 | 26 | 175 | 0.0 | 0.0 | 0.00 | 0.00 | 0.00 | 80 | 1013.0 |
| 20260906024747 | 26 | 175 | 0.0 | 0.0 | 0.00 | 0.00 | 0.00 | 80 | 1012.9 |
| 20260906024246 | 26 | 175 | 0.0 | 0.0 | 0.00 | 0.00 | 0.00 | 80 | 1012.7 |
| 20260906023741 | 26 | 180 | 0.0 | 0.0 | 0.00 | 0.00 | 0.00 | 80 | 1012.7 |
| 20260906023237 | 27 | 189 | 1.6 | 1.6 | 0.00 | 0.00 | 0.00 | 79 | 1012.5 |
| 20260906022732 | 27 | 186 | 0.0 | 0.0 | 0.00 | 0.00 | 0.00 | 79 | 1012.7 |
| 20260906022227 | 27 | 185 | 0.0 | 0.0 | 0.00 | 0.00 | 0.00 | 78 | 1012.4 |
| 20260906021724 | 27 | 185 | 0.0 | 0.0 | 0.00 | 0.00 | 0.00 | 78 | 1012.5 |
| 20260906021222 | 27 | 185 | 0.0 | 0.0 | 0.00 | 0.00 | 0.00 | 77 | 1012.3 |
| 20260906020717 | 27 | 193 | 0.0 | 0.0 | 0.00 | 0.00 | 0.00 | 76 | 1012.5 |
| 20260906020211 | 27 | 216 | 1.6 | 1.6 | 0.00 | 0.00 | 0.00 | 75 | 1012.4 |
| 20260906015706 | 27 | 192 | 0.0 | 0.0 | 0.00 | 0.00 | 0.00 | 75 | 1012.5 |
| 20260906015205 | 28 | 173 | 0.0 | 0.0 | 0.00 | 0.00 | 0.00 | 73 | 1012.3 |
| 20260906014705 | 28 | 173 | 0.0 | 0.0 | 0.00 | 0.00 | 0.00 | 73 | 1012.3 |
| 20260906014201 | 28 | 172 | 0.0 | 0.0 | 0.00 | 0.00 | 0.00 | 71 | 1012.4 |
| 20260906013657 | 29 | 172 | 0.0 | 0.0 | 0.00 | 0.00 | 0.00 | 71 | 1012.3 |
| 20260906013152 | 29 | 166 | 0.0 | 0.0 | 0.00 | 0.00 | 0.00 | 68 | 1012.2 |
| 20260906012651 | 28 | 161 | 0.0 | 1.6 | 0.00 | 0.00 | 0.00 | 68 | 1012.0 |
| 20260906012146 | 29 | 145 | 0.0 | 0.0 | 0.00 | 0.00 | 0.00 | 68 | 1011.9 |
| 20260906011642 | 28 | 171 | 0.0 | 0.0 | 0.00 | 0.00 | 0.00 | 67 | 1012.1 |
| 20260906011136 | 28 | 13 | 4.8 | 4.8 | 0.00 | 0.00 | 0.00 | 71 | 1012.0 |
| 20260906010631 | 28 | 159 | 1.6 | 1.6 | 0.00 | 0.00 | 0.00 | 70 | 1011.9 |
| 20260906010128 | 28 | 180 | 0.0 | 0.0 | 0.00 | 0.00 | 0.00 | 70 | 1012.0 |
| 20260906005622 | 28 | 181 | 0.0 | 0.0 | 0.00 | 0.00 | 0.00 | 69 | 1011.7 |
| 20260906005121 | 28 | 181 | 0.0 | 0.0 | 0.00 | 0.00 | 0.00 | 70 | 1011.6 |
| 20260906004620 | 28 | 182 | 0.0 | 0.0 | 0.00 | 0.00 | 0.00 | 69 | 1012.0 |
| 20260906004115 | 28 | 184 | 0.0 | 0.0 | 0.00 | 0.00 | 0.00 | 69 | 1011.5 |
| 20260906003611 | 29 | 187 | 0.0 | 0.0 | 0.00 | 0.00 | 0.00 | 69 | 1011.7 |
| 20260906003107 | 30 | 190 | 0.0 | 0.0 | 0.00 | 0.00 | 0.00 | 67 | 1011.6 |
| 20260906002607 | 30 | 183 | 0.0 | 0.0 | 0.00 | 0.00 | 0.00 | 65 | 1011.5 |
| 20260906002101 | 30 | 176 | 0.0 | 0.0 | 0.00 | 0.00 | 0.00 | 66 | 1011.7 |
| 20260906001556 | 30 | 176 | 0.0 | 0.0 | 0.00 | 0.00 | 0.00 | 66 | 1011.9 |
| 20260906001051 | 30 | 176 | 0.0 | 0.0 | 0.00 | 0.00 | 0.00 | 65 | 1012.0 |
| 20260906000547 | 30 | 174 | 0.0 | 0.0 | 0.00 | 0.00 | 0.00 | 63 | 1012.1 |
| 20260906000042 | 31 | 174 | 0.0 | 0.0 | 0.00 | 0.00 | 0.00 | 63 | 1012.1 |
| 20260905235536 | 31 | 173 | 0.0 | 0.0 | 0.00 | 0.00 | 0.00 | 63 | 1012.3 |
| 20260905235031 | 31 | 172 | 0.0 | 0.0 | 0.00 | 0.00 | 0.00 | 60 | 1012.2 |
| 20260905234527 | 31 | 180 | 0.0 | 0.0 | 0.00 | 0.00 | 0.00 | 62 | 1012.1 |
| 20260905234027 | 31 | 173 | 0.0 | 0.0 | 0.00 | 0.00 | 0.00 | 59 | 1012.1 |
| 20260905233522 | 32 | 169 | 0.0 | 0.0 | 0.00 | 0.00 | 0.00 | 58 | 1012.3 |
| 20260905233021 | 32 | 177 | 0.0 | 0.0 | 0.00 | 0.00 | 0.00 | 57 | 1012.1 |
| 20260905232517 | 32 | 175 | 0.0 | 0.0 | 0.00 | 0.00 | 0.00 | 55 | 1012.0 |
| 20260905232013 | 33 | 185 | 0.0 | 0.0 | 0.00 | 0.00 | 0.00 | 56 | 1012.1 |
| 20260905231508 | 33 | 186 | 0.0 | 0.0 | 0.00 | 0.00 | 0.00 | 58 | 1012.1 |
| 20260905231004 | 33 | 182 | 0.0 | 0.0 | 0.00 | 0.00 | 0.00 | 60 | 1012.0 |
| 20260905230503 | 33 | 180 | 0.0 | 0.0 | 0.00 | 0.00 | 0.00 | 59 | 1011.9 |
| 20260905230001 | 33 | 192 | 0.0 | 1.6 | 0.00 | 0.00 | 0.00 | 56 | 1011.7 |
| 20260905225456 | 32 | 183 | 0.0 | 1.6 | 0.00 | 0.00 | 0.00 | 59 | 1011.7 |
| 20260905224951 | 32 | 190 | 0.0 | 0.0 | 0.00 | 0.00 | 0.00 | 56 | 1011.7 |
| 20260905224446 | 32 | 190 | 0.0 | 0.0 | 0.00 | 0.00 | 0.00 | 60 | 1011.6 |
| 20260905223945 | 33 | 178 | 0.0 | 0.0 | 0.00 | 0.00 | 0.00 | 58 | 1011.7 |
| 20260905223444 | 33 | 165 | 0.0 | 1.6 | 0.00 | 0.00 | 0.00 | 51 | 1011.7 |
| 20260905222944 | 33 | 180 | 0.0 | 1.6 | 0.00 | 0.00 | 0.00 | 53 | 1011.9 |
| 20260905222438 | 33 | 184 | 0.0 | 1.6 | 0.00 | 0.00 | 0.00 | 54 | 1011.9 |
| 20260905221934 | 32 | 174 | 1.6 | 1.6 | 0.00 | 0.00 | 0.00 | 55 | 1011.9 |
| 20260905221430 | 32 | 174 | 0.0 | 0.0 | 0.00 | 0.00 | 0.00 | 57 | 1011.4 |
| 20260905220926 | 32 | 182 | 0.0 | 0.0 | 0.00 | 0.00 | 0.00 | 59 | 1011.9 |
| 20260905220422 | 32 | 188 | 0.0 | 0.0 | 0.00 | 0.00 | 0.00 | 55 | 1011.5 |
| 20260905215921 | 32 | 190 | 1.6 | 1.6 | 0.00 | 0.00 | 0.00 | 56 | 1011.5 |
| 20260905215416 | 33 | 187 | 0.0 | 0.0 | 0.00 | 0.00 | 0.00 | 54 | 1011.6 |
| 20260905214913 | 33 | 234 | 1.6 | 3.2 | 0.00 | 0.00 | 0.00 | 51 | 1011.5 |
| 20260905214409 | 33 | 231 | 1.6 | 3.2 | 0.00 | 0.00 | 0.00 | 50 | 1011.6 |
| 20260905213908 | 33 | 256 | 1.6 | 3.2 | 0.00 | 0.00 | 0.00 | 49 | 1011.7 |
| 20260905213405 | 33 | 225 | 8.0 | 9.7 | 0.00 | 0.00 | 0.00 | 47 | 1011.6 |
| 20260905212900 | 34 | 184 | 1.6 | 3.2 | 0.00 | 0.00 | 0.00 | 50 | 1011.6 |
| 20260905212354 | 35 | 228 | 3.2 | 4.8 | 0.00 | 0.00 | 0.00 | 45 | 1011.5 |
| 20260905211853 | 35 | 195 | 1.6 | 1.6 | 0.00 | 0.00 | 0.00 | 46 | 1011.6 |
| 20260905211349 | 36 | 267 | 11.3 | 12.9 | 0.00 | 0.00 | 0.00 | 44 | 1011.5 |
| 20260905210840 | 36 | 194 | 3.2 | 4.8 | 0.00 | 0.00 | 0.00 | 41 | 1011.6 |
| 20260905210340 | 36 | 198 | 0.0 | 1.6 | 0.00 | 0.00 | 0.00 | 42 | 1011.5 |
| 20260905205839 | 36 | 216 | 1.6 | 1.6 | 0.00 | 0.00 | 0.00 | 45 | 1011.5 |
| 20260905205333 | 36 | 178 | 1.6 | 1.6 | 0.00 | 0.00 | 0.00 | 44 | 1011.6 |
| 20260905204833 | 37 | 195 | 4.8 | 4.8 | 0.00 | 0.00 | 0.00 | 41 | 1011.9 |
| 20260905204329 | 38 | 232 | 3.2 | 4.8 | 0.00 | 0.00 | 0.00 | 40 | 1012.1 |
| 20260905203827 | 38 | 231 | 1.6 | 1.6 | 0.00 | 0.00 | 0.00 | 38 | 1011.9 |
| 20260905203324 | 38 | 204 | 4.8 | 4.8 | 0.00 | 0.00 | 0.00 | 36 | 1011.9 |
| 20260905202819 | 39 | 189 | 1.6 | 1.6 | 0.00 | 0.00 | 0.00 | 37 | 1012.1 |
| 20260905202314 | 40 | 197 | 6.4 | 9.7 | 0.00 | 0.00 | 0.00 | 35 | 1012.0 |
| 20260905201809 | 41 | 200 | 0.0 | 1.6 | 0.00 | 0.00 | 0.00 | 35 | 1012.2 |
| 20260905201305 | 40 | 194 | 0.0 | 1.6 | 0.00 | 0.00 | 0.00 | 35 | 1012.2 |
| 20260905200759 | 40 | 183 | 4.8 | 4.8 | 0.00 | 0.00 | 0.00 | 35 | 1012.5 |
| 20260905200255 | 40 | 193 | 1.6 | 3.2 | 0.00 | 0.00 | 0.00 | 38 | 1012.2 |
| 20260905195753 | 40 | 185 | 0.0 | 1.6 | 0.00 | 0.00 | 0.00 | 35 | 1012.4 |
| 20260905195248 | 39 | 196 | 1.6 | 3.2 | 0.00 | 0.00 | 0.00 | 39 | 1012.4 |
| 20260905194744 | 40 | 232 | 4.8 | 4.8 | 0.00 | 0.00 | 0.00 | 35 | 1012.3 |
| 20260905194243 | 40 | 237 | 4.8 | 4.8 | 0.00 | 0.00 | 0.00 | 36 | 1012.6 |
| 20260905193743 | 39 | 201 | 1.6 | 3.2 | 0.00 | 0.00 | 0.00 | 37 | 1012.3 |
| 20260905193238 | 39 | 219 | 6.4 | 8.0 | 0.00 | 0.00 | 0.00 | 35 | 1012.6 |
| 20260905192733 | 40 | 267 | 8.0 | 11.3 | 0.00 | 0.00 | 0.00 | 35 | 1012.9 |
| 20260905192230 | 40 | 213 | 1.6 | 1.6 | 0.00 | 0.00 | 0.00 | 39 | 1012.8 |
| 20260905191729 | 40 | 210 | 4.8 | 4.8 | 0.00 | 0.00 | 0.00 | 35 | 1012.8 |
| 20260905191227 | 40 | 213 | 4.8 | 8.0 | 0.00 | 0.00 | 0.00 | 35 | 1013.0 |
| 20260905190726 | 40 | 191 | 1.6 | 1.6 | 0.00 | 0.00 | 0.00 | 39 | 1013.2 |
| 20260905190225 | 39 | 172 | 3.2 | 3.2 | 0.00 | 0.00 | 0.00 | 36 | 1013.3 |
| 20260905185724 | 40 | 216 | 1.6 | 3.2 | 0.00 | 0.00 | 0.00 | 39 | 1013.1 |
| 20260905185219 | 39 | 199 | 3.2 | 3.2 | 0.00 | 0.00 | 0.00 | 39 | 1013.4 |
| 20260905184719 | 38 | 218 | 4.8 | 4.8 | 0.00 | 0.00 | 0.00 | 40 | 1013.2 |
| 20260905184218 | 38 | 193 | 3.2 | 3.2 | 0.00 | 0.00 | 0.00 | 40 | 1013.3 |
| 20260905183712 | 38 | 214 | 1.6 | 1.6 | 0.00 | 0.00 | 0.00 | 41 | 1013.4 |
| 20260905183207 | 39 | 212 | 1.6 | 3.2 | 0.00 | 0.00 | 0.00 | 37 | 1013.4 |
| 20260905182707 | 39 | 190 | 1.6 | 3.2 | 0.00 | 0.00 | 0.00 | 40 | 1013.4 |
| 20260905182206 | 39 | 186 | 0.0 | 1.6 | 0.00 | 0.00 | 0.00 | 41 | 1013.6 |
| 20260905181702 | 38 | 235 | 3.2 | 3.2 | 0.00 | 0.00 | 0.00 | 40 | 1013.6 |
| 20260905181201 | 38 | 185 | 1.6 | 3.2 | 0.00 | 0.00 | 0.00 | 44 | 1013.6 |
| 20260905180655 | 38 | 33 | 3.2 | 3.2 | 0.00 | 0.00 | 0.00 | 43 | 1013.7 |
| 20260905180151 | 38 | 98 | 1.6 | 1.6 | 0.00 | 0.00 | 0.00 | 39 | 1013.8 |
| 20260905175650 | 37 | 184 | 1.6 | 1.6 | 0.00 | 0.00 | 0.00 | 43 | 1013.9 |
| 20260905175146 | 37 | 231 | 4.8 | 8.0 | 0.00 | 0.00 | 0.00 | 40 | 1013.9 |
| 20260905174641 | 37 | 204 | 4.8 | 4.8 | 0.00 | 0.00 | 0.00 | 44 | 1014.0 |
| 20260905174137 | 37 | 187 | 1.6 | 1.6 | 0.00 | 0.00 | 0.00 | 47 | 1013.8 |
| 20260905173632 | 37 | 179 | 0.0 | 0.0 | 0.00 | 0.00 | 0.00 | 46 | 1013.8 |
| 20260905173128 | 37 | 190 | 1.6 | 3.2 | 0.00 | 0.00 | 0.00 | 44 | 1014.0 |
| 20260905172627 | 37 | 206 | 3.2 | 3.2 | 0.00 | 0.00 | 0.00 | 46 | 1014.4 |
| 20260905172122 | 37 | 189 | 1.6 | 1.6 | 0.00 | 0.00 | 0.00 | 46 | 1014.3 |
| 20260905171618 | 37 | 188 | 3.2 | 3.2 | 0.00 | 0.00 | 0.00 | 48 | 1014.2 |
| 20260905171114 | 37 | 205 | 1.6 | 3.2 | 0.00 | 0.00 | 0.00 | 45 | 1014.3 |
| 20260905170610 | 37 | 184 | 3.2 | 3.2 | 0.00 | 0.00 | 0.00 | 45 | 1014.3 |
| 20260905170105 | 38 | 186 | 3.2 | 3.2 | 0.00 | 0.00 | 0.00 | 41 | 1014.4 |
| 20260905165600 | 37 | 182 | 1.6 | 1.6 | 0.00 | 0.00 | 0.00 | 47 | 1014.7 |
| 20260905165055 | 38 | 293 | 4.8 | 8.0 | 0.00 | 0.00 | 0.00 | 42 | 1014.6 |
| 20260905164550 | 37 | 182 | 0.0 | 0.0 | 0.00 | 0.00 | 0.00 | 49 | 1014.5 |
| 20260905164044 | 37 | 262 | 1.6 | 3.2 | 0.00 | 0.00 | 0.00 | 46 | 1014.7 |
| 20260905163540 | 37 | 175 | 1.6 | 1.6 | 0.00 | 0.00 | 0.00 | 50 | 1014.8 |
| 20260905163036 | 37 | 172 | 1.6 | 1.6 | 0.00 | 0.00 | 0.00 | 49 | 1014.9 |
| 20260905162532 | 36 | 201 | 1.6 | 1.6 | 0.00 | 0.00 | 0.00 | 50 | 1015.2 |
| 20260905162021 | 37 | 304 | 4.8 | 8.0 | 0.00 | 0.00 | 0.00 | 45 | 1015.3 |
| 20260905161521 | 37 | 197 | 3.2 | 3.2 | 0.00 | 0.00 | 0.00 | 49 | 1015.1 |
| 20260905161018 | 37 | 194 | 4.8 | 4.8 | 0.00 | 0.00 | 0.00 | 49 | 1015.2 |
| 20260905160512 | 37 | 170 | 1.6 | 3.2 | 0.00 | 0.00 | 0.00 | 53 | 1015.2 |
| 20260905160011 | 37 | 187 | 0.0 | 0.0 | 0.00 | 0.00 | 0.00 | 52 | 1015.2 |
| 20260905155506 | 37 | 199 | 1.6 | 3.2 | 0.00 | 0.00 | 0.00 | 49 | 1015.4 |
| 20260905155004 | 37 | 184 | 1.6 | 1.6 | 0.00 | 0.00 | 0.00 | 48 | 1015.4 |
| 20260905154500 | 37 | 174 | 0.0 | 1.6 | 0.00 | 0.00 | 0.00 | 49 | 1015.2 |
| 20260905153955 | 37 | 197 | 1.6 | 1.6 | 0.00 | 0.00 | 0.00 | 52 | 1015.3 |
| 20260905153452 | 37 | 208 | 4.8 | 4.8 | 0.00 | 0.00 | 0.00 | 51 | 1015.3 |
| 20260905152951 | 36 | 182 | 0.0 | 0.0 | 0.00 | 0.00 | 0.00 | 56 | 1015.2 |
| 20260905152451 | 35 | 209 | 1.6 | 1.6 | 0.00 | 0.00 | 0.00 | 56 | 1015.3 |
| 20260905151946 | 35 | 236 | 1.6 | 1.6 | 0.00 | 0.00 | 0.00 | 54 | 1015.1 |
| 20260905151441 | 35 | 200 | 1.6 | 1.6 | 0.00 | 0.00 | 0.00 | 52 | 1015.2 |
| 20260905150936 | 35 | 180 | 0.0 | 0.0 | 0.00 | 0.00 | 0.00 | 57 | 1015.2 |
| 20260905150437 | 35 | 184 | 0.0 | 0.0 | 0.00 | 0.00 | 0.00 | 57 | 1015.3 |
| 20260905145933 | 34 | 188 | 1.6 | 1.6 | 0.00 | 0.00 | 0.00 | 57 | 1015.3 |
| 20260905145427 | 33 | 233 | 0.0 | 1.6 | 0.00 | 0.00 | 0.00 | 60 | 1015.2 |
| 20260905144927 | 33 | 185 | 0.0 | 0.0 | 0.00 | 0.00 | 0.00 | 63 | 1015.2 |
| 20260905144423 | 34 | 207 | 4.8 | 8.0 | 0.00 | 0.00 | 0.00 | 56 | 1015.3 |
| 20260905143921 | 33 | 184 | 0.0 | 0.0 | 0.00 | 0.00 | 0.00 | 62 | 1015.2 |
| 20260905143415 | 33 | 188 | 1.6 | 3.2 | 0.00 | 0.00 | 0.00 | 59 | 1015.0 |
| 20260905142915 | 32 | 185 | 0.0 | 0.0 | 0.00 | 0.00 | 0.00 | 65 | 1015.3 |
| 20260905142414 | 31 | 221 | 1.6 | 3.2 | 0.00 | 0.00 | 0.00 | 66 | 1015.2 |
| 20260905141910 | 31 | 193 | 1.6 | 1.6 | 0.00 | 0.00 | 0.00 | 67 | 1015.3 |
| 20260905141405 | 31 | 186 | 0.0 | 1.6 | 0.00 | 0.00 | 0.00 | 69 | 1015.2 |
| 20260905140901 | 30 | 190 | 1.6 | 1.6 | 0.00 | 0.00 | 0.00 | 68 | 1015.0 |
| 20260905140355 | 31 | 193 | 3.2 | 3.2 | 0.00 | 0.00 | 0.00 | 68 | 1015.1 |
| 20260905135854 | 31 | 183 | 1.6 | 1.6 | 0.00 | 0.00 | 0.00 | 68 | 1015.4 |
| 20260905135350 | 31 | 186 | 0.0 | 1.6 | 0.00 | 0.00 | 0.00 | 68 | 1015.3 |
| 20260905134846 | 31 | 188 | 1.6 | 1.6 | 0.00 | 0.00 | 0.00 | 67 | 1015.4 |
| 20260905134344 | 31 | 187 | 0.0 | 0.0 | 0.00 | 0.00 | 0.00 | 67 | 1015.3 |
| 20260905133839 | 31 | 196 | 0.0 | 0.0 | 0.00 | 0.00 | 0.00 | 66 | 1015.3 |
| 20260905133334 | 31 | 181 | 0.0 | 0.0 | 0.00 | 0.00 | 0.00 | 65 | 1015.7 |
| 20260905132833 | 31 | 178 | 0.0 | 0.0 | 0.00 | 0.00 | 0.00 | 65 | 1015.5 |
| 20260905132329 | 31 | 178 | 0.0 | 0.0 | 0.00 | 0.00 | 0.00 | 65 | 1015.4 |
| 20260905131823 | 31 | 180 | 0.0 | 0.0 | 0.00 | 0.00 | 0.00 | 68 | 1015.5 |
| 20260905131319 | 31 | 175 | 0.0 | 0.0 | 0.00 | 0.00 | 0.00 | 67 | 1015.4 |
| 20260905130814 | 30 | 180 | 0.0 | 0.0 | 0.00 | 0.00 | 0.00 | 69 | 1015.4 |
| 20260905130312 | 30 | 180 | 0.0 | 0.0 | 0.00 | 0.00 | 0.00 | 71 | 1015.5 |
| 20260905125808 | 30 | 186 | 0.0 | 0.0 | 0.00 | 0.00 | 0.00 | 70 | 1015.4 |
| 20260905125305 | 30 | 187 | 0.0 | 0.0 | 0.00 | 0.00 | 0.00 | 72 | 1015.4 |
| 20260905124759 | 30 | 187 | 0.0 | 0.0 | 0.00 | 0.00 | 0.00 | 71 | 1015.5 |
| 20260905124255 | 29 | 187 | 0.0 | 0.0 | 0.00 | 0.00 | 0.00 | 74 | 1015.3 |
| 20260905123750 | 27 | 187 | 0.0 | 0.0 | 0.00 | 0.00 | 0.00 | 76 | 1015.4 |
| 20260905123247 | 27 | 187 | 0.0 | 0.0 | 0.00 | 0.00 | 0.00 | 79 | 1015.4 |
| 20260905122747 | 26 | 187 | 0.0 | 0.0 | 0.00 | 0.00 | 0.00 | 80 | 1015.4 |
| 20260905122246 | 26 | 172 | 0.0 | 0.0 | 0.00 | 0.00 | 0.00 | 81 | 1015.3 |
| 20260905121741 | 25 | 165 | 0.0 | 0.0 | 0.00 | 0.00 | 0.00 | 82 | 1015.3 |
| 20260905121238 | 25 | 172 | 0.0 | 0.0 | 0.00 | 0.00 | 0.00 | 85 | 1015.3 |
| 20260905120736 | 25 | 176 | 0.0 | 0.0 | 0.00 | 0.00 | 0.00 | 85 | 1015.2 |
| 20260905120231 | 25 | 176 | 0.0 | 0.0 | 0.00 | 0.00 | 0.00 | 86 | 1015.1 |
| 20260905115726 | 25 | 176 | 0.0 | 0.0 | 0.00 | 0.00 | 0.00 | 85 | 1014.9 |
| 20260905115225 | 25 | 176 | 0.0 | 0.0 | 0.00 | 0.00 | 0.00 | 85 | 1015.2 |
| 20260905114721 | 25 | 176 | 0.0 | 0.0 | 0.00 | 0.00 | 0.00 | 84 | 1015.0 |
| 20260905114219 | 25 | 176 | 0.0 | 0.0 | 0.00 | 0.00 | 0.00 | 84 | 1015.1 |
| 20260905113719 | 25 | 176 | 0.0 | 0.0 | 0.00 | 0.00 | 0.00 | 84 | 1014.9 |
| 20260905113215 | 25 | 176 | 0.0 | 0.0 | 0.00 | 0.00 | 0.00 | 84 | 1014.8 |